Date String (YYYY-MM-DD hh:mm:ss) UTC,Instrument flags,Ambient pressure (hPa),Sample flow (lpm),Bypass flow (lpm),Sample temperature (°C),Ambient temperature (°C),ASC tube jacket temperature (°C),LED temperature (°C),Box temperature (°C),Sample RH (%),Span deviation,Mass concentration (μg/m³),Mass concentration (μg/m³),Mass concentration (μg/m³)
DateTimeUTC,F1_M11,P_M11,Q1_M11,Q2_M11,T1_M11,T2_M11,T3_M11,T4_M11,T5_M11,U1_M11,ZSPAN_M11,X0_M11,X2_M11,X1_M11
2021-08-22 11:00:00,,0823.7,5.02,0.00,28.7,28.1,00.0,37.9,30.5,24.9,0001.4,0012.60,0008.25,0007.72
2021-08-22 11:01:00,,0823.7,5.00,0.00,28.8,28.1,00.0,37.9,30.6,24.9,0001.3,0012.76,0008.25,0007.73
2021-08-22 11:02:00,,0823.8,5.01,0.00,28.8,28.2,00.0,37.9,30.6,24.8,0001.2,0012.98,0008.28,0007.75
2021-08-22 11:03:00,,0824.0,5.00,0.00,28.8,28.2,00.0,37.9,30.6,24.8,0001.0,0012.97,0008.29,0007.76
2021-08-22 11:04:00,,0824.0,4.99,0.00,28.8,28.2,00.0,37.9,30.7,24.7,0001.0,0013.32,0008.32,0007.77
2021-08-22 11:05:00,,0824.0,5.01,0.00,28.8,28.3,00.0,37.9,30.7,24.7,0001.1,0013.71,0008.32,0007.77
2021-08-22 11:06:00,,0824.0,5.00,0.00,28.9,28.3,00.0,38.0,30.7,24.7,0001.5,0013.54,0008.30,0007.76
2021-08-22 11:07:00,,0824.0,5.00,0.00,28.9,28.3,00.0,38.0,30.8,24.7,0001.9,0013.17,0008.29,0007.74
2021-08-22 11:08:00,,0824.1,4.99,0.00,28.9,28.4,00.0,38.0,30.8,24.9,0002.0,0013.26,0008.31,0007.74
2021-08-22 11:09:00,,0824.0,5.01,0.00,29.0,28.4,00.0,38.0,30.8,25.4,0002.2,0013.22,0008.28,0007.72
2021-08-22 11:10:00,,0824.0,4.99,0.00,29.0,28.4,00.0,38.0,30.8,25.4,0002.2,0013.07,0008.25,0007.71
2021-08-22 11:11:00,,0824.0,5.00,0.00,29.0,28.5,00.0,38.0,30.9,25.3,0002.5,0013.36,0008.22,0007.71
2021-08-22 11:12:00,,0824.0,5.00,0.00,29.0,28.5,00.0,38.0,30.9,25.1,0002.6,0013.64,0008.20,0007.69
2021-08-22 11:13:00,,0824.0,4.99,0.00,29.0,28.5,00.0,38.1,30.9,25.2,0002.7,0014.01,0008.18,0007.68
2021-08-22 11:14:00,,0824.0,5.01,0.00,29.1,28.5,00.0,38.1,30.9,25.2,0002.9,0014.69,0008.15,0007.68
2021-08-22 11:15:00,,0823.9,5.00,0.00,29.1,28.5,00.0,38.1,30.9,25.4,0003.1,0015.21,0008.12,0007.69
2021-08-22 11:16:00,,0824.0,5.00,0.00,29.1,28.5,00.0,38.1,30.9,25.7,0003.1,0014.94,0008.18,0007.73
2021-08-22 11:17:00,,0824.1,5.00,0.00,29.1,28.5,00.0,38.1,30.9,25.8,0002.9,0015.68,0008.31,0007.81
2021-08-22 11:18:00,,0824.1,5.01,0.00,29.1,28.5,00.0,38.1,30.9,25.7,0002.6,0016.00,0008.45,0007.90
2021-08-22 11:19:00,,0824.0,4.99,0.00,29.1,28.6,00.0,38.1,31.0,25.6,0002.5,0016.13,0008.55,0007.97
2021-08-22 11:20:00,,0824.0,5.00,0.00,29.1,28.6,00.0,38.2,31.0,25.4,0002.2,0016.31,0008.66,0008.06
2021-08-22 11:21:00,,0824.0,5.01,0.00,29.2,28.6,00.0,38.2,31.0,25.3,0002.0,0016.32,0008.78,0008.14
2021-08-22 11:22:00,,0824.0,5.00,0.00,29.2,28.6,00.0,38.2,31.0,25.3,0001.6,0015.92,0008.85,0008.20
2021-08-22 11:23:00,,0824.1,5.01,0.00,29.2,28.6,00.0,38.2,31.0,25.3,0001.6,0015.66,0008.99,0008.28
2021-08-22 11:24:00,,0824.1,5.00,0.00,29.2,28.6,00.0,38.2,31.0,25.3,0001.7,0015.17,0009.05,0008.34
2021-08-22 11:25:00,,0824.1,5.00,0.00,29.2,28.6,00.0,38.2,31.0,25.3,0001.8,0014.55,0009.14,0008.40
2021-08-22 11:26:00,,0824.1,5.00,0.00,29.2,28.6,00.0,38.3,31.0,25.5,0001.4,0014.39,0009.25,0008.47
2021-08-22 11:27:00,,0824.2,5.00,0.00,29.2,28.6,00.0,38.3,31.0,25.6,0001.3,0014.50,0009.33,0008.53
2021-08-22 11:28:00,,0824.4,5.01,0.00,29.2,28.6,00.0,38.3,31.1,25.6,0001.5,0014.51,0009.36,0008.57
2021-08-22 11:29:00,,0824.4,4.99,0.00,29.3,28.6,00.0,38.3,31.1,25.7,0001.5,0015.02,0009.41,0008.61
2021-08-22 11:30:00,,0824.4,4.99,0.00,29.3,28.6,00.0,38.3,31.1,25.8,0001.3,0015.65,0009.46,0008.63
2021-08-22 11:31:00,,0824.4,5.01,0.00,29.3,28.6,00.0,38.3,31.1,26.1,0001.5,0015.90,0009.49,0008.65
2021-08-22 11:32:00,,0824.4,5.01,0.00,29.3,28.7,00.0,38.3,31.1,26.1,0001.8,0016.03,0009.54,0008.67
2021-08-22 11:33:00,,0824.3,5.00,0.00,29.3,28.7,00.0,38.4,31.1,26.0,0002.2,0016.16,0009.64,0008.74
2021-08-22 11:34:00,,0824.4,5.00,0.00,29.3,28.7,00.0,38.4,31.2,26.0,0002.1,0016.26,0009.68,0008.78
2021-08-22 11:35:00,,0824.3,5.01,0.00,29.3,28.7,00.0,38.4,31.2,25.9,0002.3,0016.62,0009.81,0008.84
2021-08-22 11:36:00,,0824.4,4.99,0.00,29.3,28.7,00.0,38.4,31.2,25.9,0002.2,0016.85,0009.90,0008.88
2021-08-22 11:37:00,,0824.3,5.01,0.00,29.3,28.7,00.0,38.4,31.1,26.1,0002.5,0016.93,0009.95,0008.92
2021-08-22 11:38:00,,0824.5,5.00,0.00,29.4,28.7,00.0,38.4,31.1,26.6,0002.5,0017.04,0009.97,0008.94
2021-08-22 11:39:00,,0824.5,5.00,0.00,29.4,28.7,00.0,38.4,31.2,27.3,0002.5,0016.69,0010.02,0008.97
2021-08-22 11:40:00,,0824.4,5.00,0.00,29.4,28.7,00.0,38.4,31.1,27.6,0002.5,0016.16,0010.04,0009.00
2021-08-22 11:41:00,,0824.4,5.01,0.00,29.4,28.7,00.0,38.4,31.1,28.5,0002.6,0015.95,0010.11,0009.07
2021-08-22 11:42:00,,0824.3,5.00,0.00,29.4,28.7,00.0,38.4,31.2,28.5,0002.4,0016.10,0010.17,0009.13
2021-08-22 11:43:00,,0824.3,4.99,0.00,29.4,28.7,00.0,38.4,31.2,28.4,0002.1,0015.95,0010.20,0009.19
2021-08-22 11:44:00,,0824.4,5.02,0.00,29.4,28.7,00.0,38.5,31.2,28.8,0001.9,0015.92,0010.19,0009.21
2021-08-22 11:45:00,,0824.4,5.00,0.00,29.4,28.7,00.0,38.5,31.2,29.2,0001.8,0016.26,0010.25,0009.30
2021-08-22 11:46:00,,0824.4,5.00,0.00,29.4,28.7,00.0,38.5,31.2,29.0,0001.4,0016.51,0010.28,0009.34
2021-08-22 11:47:00,,0824.4,5.00,0.00,29.4,28.7,00.0,38.5,31.2,28.9,0001.4,0016.87,0010.38,0009.41
2021-08-22 11:48:00,,0824.5,5.00,0.00,29.4,28.7,00.0,38.5,31.2,28.6,0001.4,0016.91,0010.44,0009.45
2021-08-22 11:49:00,,0824.5,5.00,0.00,29.4,28.7,00.0,38.5,31.2,28.4,0001.4,0016.94,0010.46,0009.49
2021-08-22 11:50:00,,0824.7,5.00,0.00,29.4,28.7,00.0,38.5,31.2,28.4,0001.4,0017.73,0010.53,0009.53
2021-08-22 11:51:00,,0824.6,5.01,0.00,29.4,28.7,00.0,38.5,31.2,28.3,0001.4,0018.70,0010.58,0009.57
2021-08-22 11:52:00,,0824.6,5.00,0.00,29.4,28.7,00.0,38.5,31.2,28.2,0001.5,0018.97,0010.60,0009.58
2021-08-22 11:53:00,,0824.5,5.00,0.00,29.4,28.7,00.0,38.5,31.2,28.1,0001.6,0018.73,0010.60,0009.56
2021-08-22 11:54:00,,0824.4,5.00,0.00,29.4,28.7,00.0,38.5,31.2,28.5,0001.7,0019.10,0010.69,0009.57
2021-08-22 11:55:00,,0824.5,4.99,0.00,29.4,28.7,00.0,38.5,31.2,28.6,0001.7,0019.30,0010.76,0009.59
2021-08-22 11:56:00,,0824.4,5.00,0.00,29.4,28.7,00.0,38.5,31.2,29.0,0001.8,0018.98,0010.76,0009.58
2021-08-22 11:57:00,,0824.7,5.01,0.00,29.4,28.7,00.0,38.5,31.2,28.9,0001.9,0018.56,0010.72,0009.56
2021-08-22 11:58:00,,0824.6,5.01,0.00,29.4,28.8,00.0,38.5,31.2,28.3,0002.0,0018.19,0010.62,0009.52
2021-08-22 11:59:00,,0824.7,4.99,0.00,29.4,28.8,00.0,38.5,31.2,27.6,0001.9,0018.06,0010.62,0009.50
